Regional Weather Roundup
Issued by NWS

Home | Current Version | Previous Version | Text Only | Print | Product List | Glossary On
Versions: 1 2 3 4 5 6 7 8 9 10 11 12 13 14 15 16 17 18 19 20 21 22 23 24 25 26 27 28 29 30 31 32 33 34 35 36 37 38 39 40 41 42 43 44 45 46 47 48 49 50
000
ASUS44 KJAN 242210
RWRMS

MISSISSIPPI HOURLY WEATHER ROUNDUP
NATIONAL WEATHER SERVICE JACKSON MS
400 PM CST FRI FEB 24 2017

NOTE: "FAIR: INDICATES FEW OR NO CLOUDS BELOW 12,000 FEET WITH NO
SIGNIFICANT WEATHER AND/OR OBSTRUCTIONS TO VISIBILITY.

MSZ001>002-007>008-010>013-018>021-025>028-034>036-242300-
NORTHWEST MISSISSIPPI

CITY           SKY/WX    TMP DP  RH WIND       PRES   REMARKS
BATESVILLE     FAIR      72  56  58 W8        29.71S
CLEVELAND      FAIR      74  58  58 SW13      29.70S
GREENWOOD      MOSUNNY   78  55  44 SW10G20   29.71R
GREENVILLE     CLOUDY    73  58  59 SW12      29.70S
OLIVE BRANCH   PTSUNNY  N/A N/A N/A SW14G20   29.69S
OXFORD         FAIR      72  54  53 W7G16     29.72S
TUNICA         PTCLDY    68  55  64 W10       29.72S
WINONA         MOCLDY    76  56  49 SW8       29.71R
$$

MSZ003>006-009-014>017-022>024-029>033-037>039-242300-
NORTHEAST MISSISSIPPI

CITY           SKY/WX    TMP DP  RH WIND       PRES   REMARKS
COLUMBUS AFB   SUNNY     79  61  53 S10G25    29.69S
CORINTH        MOCLDY    75  54  46 W7G17     29.68R
STARKVILLE     FAIR      79  54  41 S14       29.71S
TUPELO         MOSUNNY   77  51  40 SW10      29.68S
$$

MSZ040-058-242300-
CENTRAL MISSISSIPPI

CITY           SKY/WX    TMP DP  RH WIND       PRES   REMARKS
JACKSON INTL   MOSUNNY   81  56  42 SW8       29.72S
JACKSON HAWKNS MOSUNNY   78  54  43 SW14      29.73R
MADISON        FAIR     N/A N/A N/A SW7       29.72R
MERIDIAN KEY   PTSUNNY   79  59  50 S14       29.73S
MERIDIAN NAS   MOSUNNY   80  55  42 S10G18    29.73S
VICKSBURG VKS  PTCLDY    79  57  47 S13G21    29.71S
$$

MSZ059>079-242300-
SOUTH MISSISSIPPI

CITY           SKY/WX    TMP DP  RH WIND       PRES   REMARKS
BROOKHAVEN     FAIR     N/A N/A N/A S9G17     29.76S
HATTIESBURG    MOSUNNY   79  59  50 S14G22    29.76S
LAUREL         FAIR      79  57  45 SW10      29.75S
MCCOMB         MOSUNNY   79  55  43 SW13      29.76R
NATCHEZ        PTSUNNY   77  57  50 SW14      29.74S
PINE BELT      MOSUNNY   79  55  44 SW10G16   29.77S
$$

MSZ080>082-242300-
COASTAL MISSISSIPPI

CITY           SKY/WX    TMP DP  RH WIND       PRES   REMARKS
BAY ST LOUIS   MOSUNNY   77  55  47 SW12G20   29.78F
BILOXI         SUNNY     73  67  82 S8        29.79F
PASCAGOULA     PTSUNNY   74  64  71 VRB7G17   29.81F
GULFPORT       MOSUNNY   73  67  81 SE12      29.78F
$$

LAZ007>009-015>016-023>026-242300-
NORTHEAST LOUISIANA

CITY           SKY/WX    TMP DP  RH WIND       PRES   REMARKS
BASTROP        FAIR      79  57  46 SW10      29.71S
TALLULAH/VBURG PTSUNNY   78  56  46 SW9G21    29.73R
VIDALIA        MOCLDY    77  60  56 SW16      29.74S
$$



USA.gov is the U.S. government's official web portal to all federal, state and local government web resources and services.